User: anonymous   Login
Location: UBC Liquid-Mirror Observatory
(49.2876°N, 122.5728°W)
Time: 20:31:36
(UTC-08:00)
Language:

Cosmos 1743 Rocket - Orbit

View from above orbital plane
View from above orbital plane
View from above satellite
View from above satellite

Ground track
Ground track

The orbit data is extracted from the following two-line orbital elements,

1 16720U 86034B   17051.88039284  .00000095  00000-0  86211-5 0  9990
2 16720  82.5568 349.9311 0021527 122.8284 294.0182 14.83275236662029
Epoch (UTC): 20 February 2017 21:07:45
Eccentricity: 0.0021527
inclination: 82.5568°
perigee height: 604 km
apogee height: 634 km
right ascension of ascending node: 349.9311°
argument of perigee: 122.8284°
revolutions per day: 14.83275236
mean anomaly at epoch: 294.0182°
orbit number at epoch: 66202

The dashed part of the orbit path shows where the satellite is in the earth's shadow,  

DLR